This demonstration page uses our WeatherBlox Daily Observations layout. Learn more.

Left ArrowRight Arrow

Hourly Observations for May 10, 2017

Temp ( °F °C ) Dew Point ( °F °C ) Humidity (%) Winds ( mph kmh ) Pressure ( in mb ) Visibility ( mi km ) Precip ( " mm )
12:54 am 00:54 Cloudy 63 17.2 46 7.8 54 54 NNE 9 15 29.86 1011 10 16.0934 0 0
1:30 am 01:30 Mostly Cloudy with Nearby Thunderstorms 63 17 48 9 59 59 NNE 5 7 29.85 1011 10 16.0934 0 0
1:54 am 01:54 Cloudy with Nearby Thunderstorms 62 16.7 49 9.4 62 62 Calm 29.88 1012 4 6.43736 0 0.0254
2:09 am 02:09 Cloudy with Light Rain 61 16.1 50 10 67 67 E 5 7 29.85 1011 10 16.0934 0 0.0254
2:54 am 02:54 Mostly Cloudy 61 16.1 52 11.1 72 72 NNW 12 19 29.84 1011 10 16.0934 0.02 0.508
3:54 am 03:54 Mostly Cloudy 58 14.4 52 11.1 81 81 NNE 10 17 29.82 1010 10 16.0934 0 0
4:54 am 04:54 Cloudy with Light Thunderstorms 59 15 51 10.6 75 75 Calm 29.83 1010 8 12.87472 0 0.0254
5:13 am 05:13 Cloudy with Thunderstorms 56 13.3 52 11.1 87 87 ENE 6 9 29.83 1010 3 4.82802 0.17 4.318
5:29 am 05:29 Cloudy with Nearby Thunderstorms 57 14 54 12 88 88 NNE 8 13 29.83 1010 10 16.0934 0 0
5:40 am 05:40 Cloudy 57 13.9 54 12.2 90 90 N 10 17 29.85 1011 10 16.0934 0.2 5.08
5:54 am 05:54 Cloudy 58 14.4 53 11.7 84 84 N 10 17 29.84 1010 10 16.0934 0.2 5.08
6:54 am 06:54 Partly Cloudy 57 13.9 54 12.2 90 90 NNE 10 17 29.83 1010 10 16.0934 0 0
7:54 am 07:54 Mostly Cloudy 58 14.4 55 12.8 90 90 SE 7 11 29.82 1010 10 16.0934 0 0.0254
8:09 am 08:09 Cloudy with Nearby Thunderstorms 57 14 55 13 94 94 ESE 7 11 29.83 1010 10 16.0934 0 0
8:16 am 08:16 Cloudy with Light Thunderstorms 58 14.4 55 12.8 90 90 ENE 3 6 29.83 1010 8 12.87472 0 0.0254
8:24 am 08:24 Cloudy with Light Thunderstorms 58 14.4 55 12.8 90 90 NW 15 24 29.88 1012 2.5 4.02335 0.01 0.254
8:43 am 08:43 Cloudy with Light Thunderstorms 57 14 55 13 94 94 ESE 13 20 29.83 1010 6 9.65604 0 0
8:54 am 08:54 Mostly Cloudy with Nearby Thunderstorms 59 15 57 13.9 93 93 SE 8 13 29.82 1010 7 11.26538 0.16 4.064
9:07 am 09:07 Cloudy 61 16.1 58 14.4 90 90 ESE 3 6 29.8 1009 10 16.0934 0 0.0254
9:50 am 09:50 Cloudy 61 16 57 14 88 88 NE 5 7 29.8 1009 10 16.0934 0 0
9:54 am 09:54 Cloudy 61 16.1 57 13.9 87 87 NE 5 7 29.81 1010 10 16.0934 0 0.0254
10:29 am 10:29 Cloudy 61 16.1 58 14.4 90 90 NE 6 9 29.8 1009 10 16.0934 0 0.0254
10:54 am 10:54 Cloudy 61 16.1 58 14.4 90 90 Calm 29.84 1010 10 16.0934 0 0.0254
11:38 am 11:38 Cloudy 64 18 57 14 78 78 Calm 29.85 1011 10 16.0934 0 0
11:54 am 11:54 Cloudy 64 17.8 59 15 84 84 Calm 29.86 1011 10 16.0934 0 0.0254
12:10 pm 12:10 Cloudy 65 18.3 60 15.6 84 84 Calm 29.85 1011 10 16.0934 0 0
12:54 pm 12:54 Cloudy 65 18.3 59 15 81 81 NNW 5 7 29.85 1011 10 16.0934 0 0
1:54 pm 13:54 Cloudy with Mist and Fog 63 17.2 60 15.6 90 90 N 14 22 29.83 1010 5 8.0467 0 0
2:17 pm 14:17 Cloudy with Mist and Fog 62 16.7 59 15 90 90 N 17 28 29.83 1010 5 8.0467 0 0
2:37 pm 14:37 Cloudy with Mist and Fog 61 16 57 14 88 88 N 18 30 29.85 1011 2.5 4.02335 0 0
2:54 pm 14:54 Cloudy with Mist and Fog 60 15.6 57 13.9 90 90 N 22 35 29.85 1011 2.5 4.02335 0 0
3:18 pm 15:18 Cloudy with Mist and Fog 59 15 55 13 88 88 N 13 20 29.88 1012 4 6.43736 0 0
3:28 pm 15:28 Cloudy with Mist and Fog 59 15 56 13.3 90 90 N 17 28 29.91 1013 3 4.82802 0 0
3:52 pm 15:52 Cloudy with Mist and Fog 59 15 55 13 88 88 N 14 22 29.91 1013 4 6.43736 0 0
3:54 pm 15:54 Cloudy with Mist and Fog 59 15 56 13.3 90 90 N 14 22 29.9 1012 4 6.43736 0 0
4:51 pm 16:51 Cloudy 61 16 55 13 83 83 N 10 17 29.88 1012 8 12.87472 0 0
4:54 pm 16:54 Cloudy 61 16.1 56 13.3 84 84 N 13 20 29.9 1012 8 12.87472 0 0
5:54 pm 17:54 Cloudy 62 16.7 57 13.9 84 84 N 12 19 29.89 1012 10 16.0934 0 0
6:13 pm 18:13 Cloudy 62 16.7 57 13.9 84 84 N 13 20 29.88 1012 10 16.0934 0 0
6:54 pm 18:54 Cloudy 63 17.2 57 13.9 81 81 N 16 26 29.89 1012 10 16.0934 0 0
7:54 pm 19:54 Mostly Cloudy 62 16.7 56 13.3 80 80 NNE 10 17 29.92 1013 10 16.0934 0 0
8:54 pm 20:54 Cloudy 61 16.1 56 13.3 84 84 NNE 8 13 29.96 1015 10 16.0934 0 0
9:54 pm 21:54 Cloudy 60 15.6 56 13.3 86 86 NNE 6 9 29.98 1015 10 16.0934 0 0
10:54 pm 22:54 Mostly Clear 58 14.4 56 13.3 93 93 N 8 13 29.98 1015 8 12.87472 0 0
11:54 pm 23:54 Clear with Mist and Fog 54 12.2 53 11.7 97 97 N 10 17 29.97 1015 6 9.65604 0 0

Powered by AerisWeather